TimeCDT,TemperatureF,Dew PointF,Humidity,Sea Level PressureIn,VisibilityMPH,Wind Direction,Wind SpeedMPH,Gust SpeedMPH,PrecipitationIn,Events,Conditions,WindDirDegrees,DateUTC
12:53 AM,68.0,62.1,81,30.04,10.0,SE,4.6,-,N/A,,Clear,130,2013-04-18 05:53:00
1:53 AM,68.0,60.1,76,30.03,10.0,SSE,5.8,-,N/A,,Clear,150,2013-04-18 06:53:00
2:53 AM,66.0,59.0,78,30.01,10.0,SSE,4.6,-,N/A,,Clear,150,2013-04-18 07:53:00
3:53 AM,64.0,59.0,84,29.99,10.0,ESE,4.6,-,N/A,,Clear,110,2013-04-18 08:53:00
4:53 AM,64.0,59.0,84,29.99,10.0,SE,5.8,-,N/A,,Clear,130,2013-04-18 09:53:00
5:53 AM,64.9,60.1,84,29.97,10.0,SE,9.2,-,N/A,,Clear,130,2013-04-18 10:53:00
6:53 AM,66.0,60.1,81,29.99,10.0,SE,8.1,-,N/A,,Clear,130,2013-04-18 11:53:00
7:53 AM,70.0,62.1,76,30.01,10.0,SSE,9.2,-,N/A,,Clear,150,2013-04-18 12:53:00
8:53 AM,73.9,63.0,68,30.02,10.0,South,11.5,16.1,N/A,,Clear,170,2013-04-18 13:53:00
9:53 AM,78.1,64.0,62,30.01,10.0,SE,12.7,17.3,N/A,,Partly Cloudy,130,2013-04-18 14:53:00
10:53 AM,80.1,64.0,58,30.00,10.0,SSE,15.0,-,N/A,,Clear,160,2013-04-18 15:53:00
11:53 AM,81.0,64.0,56,29.98,10.0,SSE,13.8,19.6,N/A,,Scattered Clouds,150,2013-04-18 16:53:00
12:53 PM,82.9,63.0,51,29.96,10.0,SSE,16.1,26.5,N/A,,Scattered Clouds,150,2013-04-18 17:53:00
1:53 PM,82.9,63.0,51,29.95,10.0,South,12.7,20.7,N/A,,Mostly Cloudy,170,2013-04-18 18:53:00
2:53 PM,82.9,61.0,47,29.92,10.0,SSE,13.8,-,N/A,,Scattered Clouds,160,2013-04-18 19:53:00
3:53 PM,84.9,63.0,48,29.89,10.0,SE,12.7,-,N/A,,Scattered Clouds,140,2013-04-18 20:53:00
4:53 PM,84.0,64.0,51,29.89,10.0,South,9.2,-,N/A,,Scattered Clouds,180,2013-04-18 21:53:00
5:53 PM,82.9,64.0,53,29.88,10.0,South,4.6,-,N/A,,Partly Cloudy,170,2013-04-18 22:53:00
6:53 PM,80.1,64.0,58,29.87,10.0,SSE,11.5,20.7,N/A,,Clear,160,2013-04-18 23:53:00
7:53 PM,77.0,64.9,66,29.88,10.0,South,9.2,-,N/A,,Clear,170,2013-04-19 00:53:00
8:53 PM,75.9,64.9,69,29.88,10.0,SSE,11.5,-,N/A,,Clear,160,2013-04-19 01:53:00
9:53 PM,75.0,66.0,73,29.88,10.0,SSE,10.4,-,N/A,,Clear,160,2013-04-19 02:53:00
10:53 PM,73.9,66.9,79,29.87,10.0,South,17.3,24.2,N/A,,Clear,170,2013-04-19 03:53:00
11:33 PM,73.4,66.2,78,29.87,10.0,South,12.7,21.9,N/A,,Mostly Cloudy,170,2013-04-19 04:33:00
11:53 PM,73.9,66.9,79,29.86,10.0,South,9.2,-,N/A,,Overcast,180,2013-04-19 04:53:00